Miscellaneous Local Product
Issued by NWS North Platte, NE

Home | Current Version | Previous Version | Text Only | Print | Product List | Glossary On
Versions: 1 2 3 4 5 6 7 8 9 10 11 12 13 14 15 16 17 18 19 20 21 22 23 24 25 26 27 28 29 30 31 32 33 34 35 36 37 38 39 40 41 42 43 44 45 46 47 48 49 50
000
AXUS43 KLBF 312310
MISLBF


WESTERN AND NORTH CENTRAL NEBRASKA HOURLY WEATHER ROUNDUP
NATIONAL WEATHER SERVICE NORTH PLATTE NE
500 PM CST SAT JAN 31 2015

***STATIONS NOT REPORTING VARIABLES SUCH AS SKY/WEATHER OR
PRESSURE ARE PROVIDED BY THE NEBRASKA DEPARTMENT OF
ROADS...RAWS...AND APRS NETWORKS...AND ARE NOT UNDER
NATIONAL WEATHER SERVICE QUALITY CONTROL***

...OBSERVATIONS IN AND NEAR THE EASTERN PANHANDLE OF NEBRASKA...

CITY           SKY/WX    TMP DP  RH WIND       PRES   REMARKS
PINE RIDGE     LGT SNOW  24  21  88 NE13      29.93S FOG     WCI  12
CHADRON        CLOUDY    27  24  89 NE13      29.92F FOG     WCI  16
ALLIANCE       SNOW      29  27  92 N12       29.86R VSB 1/2 WCI  19
SIDNEY         LGT SNOW  31  29  92 N9        29.82S VSB 1   WCI  23
WHITECLAY        N/A     23  21  93 NE5         N/A  WCI  17
CRESCENT LAKE    N/A     29  28  95 NE9         N/A  WCI  21
LISCO            N/A     32  30  93 NW13        N/A  WCI  22
LEWELLEN         N/A     30  28  93 NE5         N/A  WCI  25
$$

...OBSERVATIONS IN NORTH CENTRAL NEBRASKA...

CITY           SKY/WX    TMP DP  RH WIND       PRES   REMARKS
VALENTINE      LGT SNOW  23  21  92 NE15      29.97R VSB 1   WCI  10
THEDFORD       LGT SNOW  27  26  95 NE9       29.90S VSB 3/4 WCI  18
AINSWORTH      SNOW      24  23  96 NE13      29.95R VSB 1/4 WCI  12
O`NEILL        LGT SNOW  28  28  96 NE13      29.94S WCI  18
ORD            LGT SNOW  32  31  96 E5        29.88S VSB 3/4 WCI  27
BROKEN BOW     SNOW      34  32  92 NE7       29.85S VSB 1/2 WCI  28
BROWNLEE         N/A     24  23  96 N14         N/A  WCI  11
SPRINGVIEW       N/A     23  21  91 N3          N/A
HALSEY           N/A     26  26  99 N6G14       N/A  WCI  19
BREWSTER         N/A     29  29  99 NE8         N/A  WCI  21
ROSE             N/A     29  30 100 N10         N/A  WCI  20
NEWPORT          N/A     29  29  99 N12         N/A  WCI  20
SARGENT          N/A     31  30  95 NE3         N/A
COMSTOCK         N/A     36  36 100 E3          N/A
CHAMBERS         N/A     29  27  90 MISG        N/A
EWING            N/A     31  30  95 NE6         N/A  WCI  25
$$

...OBSERVATIONS IN SOUTHWEST NEBRASKA AND FAR NORTHEAST COLORADO...

CITY           SKY/WX    TMP DP  RH WIND       PRES   REMARKS
WRAY           DRIZZLE   36  36 100 N7        29.81S WCI  30
IMPERIAL       LGT SNOW  33  31  92 N7        29.82R FOG     WCI  27
OGALLALA       LGT SNOW  33  32  97 NE3       29.83S
NORTH PLATTE   LGT SNOW  33  31  92 NE6       29.84S VSB 3/4 WCI  28
MCCOOK         LGT SNOW  34  32  92 N7        29.82S FOG     WCI  28
LEXINGTON      LGT SNOW  33  32  96 E5        29.84S WCI  28
BRADY            N/A     32  30  94 CALM        N/A
GOTHENBURG       N/A     33  31  94 NE3         N/A
CALLAWAY         N/A     32  31  96 NE6         N/A  WCI  26
$$

...NORTH PLATTE AREA...

CITY           SKY/WX    TMP DP  RH WIND       PRES   REMARKS
AIRPORT        LGT SNOW  33  31  92 NE6       29.84S VSB 3/4 WCI  28
DOWNTOWN         N/A     32  31  97 CALM        N/A
$$

...SOME WEATHER OBSERVATIONS FROM AROUND THE REGION...

CITY           SKY/WX    TMP DP  RH WIND       PRES   REMARKS
DENVER         CLOUDY    35  31  85 W3        29.80S
LARAMIE        MOSUNNY   37  24  59 NW22G33   29.80R WCI  26
CHEYENNE       LGT SNOW  34  28  79 NE7       29.79R WCI  28
SCOTTSBLUFF    CLOUDY    33  30  88 E8        29.86S WCI  26
RAPID CITY     FOG       21  20  96 NE15      30.00R VSB 1/4 WCI   8
PIERRE         CLOUDY    18  12  77 NE18      30.11R WCI   2
WINNER         FRZ RAIN  22  19  89 NE18      30.04R FOG     WCI   7
SIOUX FALLS    LGT SNOW  26  23  88 NE17      30.04F VSB 3/4 WCI  13
OMAHA          LGT SNOW  33  32  96 SE8       29.98F VSB 3/4 WCI  26
GRAND ISLAND   SNOW      32  31  96 E5        29.89F VSB 1/2 WCI  27
KANSAS CITY    LGT RAIN  35  35 100 SE9       30.01F FOG     WCI  28
WICHITA        LGT RAIN  40  38  93 S15       29.91F FOG     WCI  32
HAYS           CLOUDY    39  30  70 S10       29.82F WCI  32
LIBERAL        CLOUDY    43  36  75 S13       29.81F
GOODLAND       LGT SNOW  34  33  96 N12       29.78F FOG     WCI  25
$$



USA.gov is the U.S. government's official web portal to all federal, state and local government web resources and services.